PROGRESS-MS 16

Last updated on Wed Jul 07 2021 00:02:13 GMT+0000 (Coordinated Universal Time)

1 47618U 21011A 21187.46697458 .00000431 00000-0 16068-4 0 9992 2 47618 51.6441 247.3821 0002094 139.8380 359.0994 15.48767607291588

Satellite not in orbit

PROGRESS-MS 16